Regional Weather Roundup
Issued by NWS

Home | Current Version | Previous Version | Graphics & Text | Print | Product List | Glossary On
Versions: 1 2 3 4 5 6 7 8 9 10 11 12 13 14 15 16 17 18 19 20 21 22 23 24 25 26 27 28 29 30 31 32 33 34 35 36 37 38 39 40 41 42 43 44 45 46 47 48 49 50
000
ASUS43 KTOP 292059
RWRKS

WEATHER ROUNDUP FOR KANSAS
NATIONAL WEATHER SERVICE GOODLAND KS
400 PM CDT SUN MAY 29 2016

NOTE:  "FAIR" INDICATES FEW OR NO CLOUDS BELOW 12,000 FEET WITH NO
SIGNIFICANT WEATHER AND/OR OBSTRUCTIONS TO VISIBILITY.

KSZ001>006-013>018-027>032-041>047-292200-
NORTHWEST KANSAS

CITY           SKY/WX    TMP DP  RH WIND       PRES   REMARKS
GOODLAND       SUNNY     82  52  35 S12       30.00F
HAYS           CLOUDY    82  61  47 SW7       30.01F
HILL CITY      CLOUDY    77  60  55 S9        30.02F
RUSSELL        CLOUDY    82  61  48 S13       30.01F
$$

KSZ061>065-074>080-084>089-292200-
SOUTHWEST KANSAS

CITY           SKY/WX    TMP DP  RH WIND       PRES   REMARKS
DODGE CITY     SUNNY     79  50  36 S16       30.03F
ELKHART          N/A     70  46  42 SE9         N/A
GARDEN CITY    CLOUDY    81  53  37 S15G24    30.04F
GREAT BEND     SUNNY     82  57  42 S8        30.01F
LIBERAL        CLOUDY    72  54  53 S12       30.09R
$$

KSZ066>073-081>083-090>101-292200-
SOUTHEAST KANSAS

CITY           SKY/WX    TMP DP  RH WIND       PRES   REMARKS
CHANUTE        CLOUDY    80  68  66 S3        30.08S
COFFEYVILLE    CLOUDY    83  69  62 E6        30.05F
HUTCHINSON     CLOUDY    85  59  41 S7        30.03F
MEDICINE LODGE   N/A     83  50  31 SW6       30.01F
NEWTON         SUNNY     82  57  42 SE13        N/A
PARSONS        CLOUDY    85  63  47 CALM      30.08F
WICHITA INTL   PTSUNNY   85  60  42 S6        30.04F
WICHITA JABRA  MOSUNNY   82  63  52 E18G24    30.05F
WINFIELD       MOSUNNY   83  65  54 S5        30.08F
$$

KSZ007>012-019>026-033>040-048>060-102>105-292200-
NORTHEAST KANSAS

CITY           SKY/WX    TMP DP  RH WIND       PRES   REMARKS
CONCORDIA      SUNNY     84  60  44 VRB7      30.03F
EMPORIA        CLOUDY    83  62  49 SE7       30.07F
LAWRENCE       CLOUDY    85  56  37 W7        30.06F
MANHATTAN      CLOUDY    83  63  50 S5        30.03F
OLATHE IND     CLOUDY    84  55  36 S5        30.08F
OLATHE EXE     CLOUDY    82  56  40 S6        30.08F
SALINA         TSTM      69  58  67 W12       30.06S
TOPEKA BILLARD CLOUDY    85  56  37 SW7       30.05F
TOPEKA FORBES  CLOUDY    86  58  38 S6        30.06F
$$




USA.gov is the U.S. government's official web portal to all federal, state and local government web resources and services.